Flag for Myanmar Weather past 2 weeks in Yangon, Myanmar

Now
81 °F

Scattered clouds.


Feels Like: 86 °F
Forecast: 76 / 90 °F
Wind: 3 mph from East

Location: Rangoon Airport

Current Time: Oct 25, 2014 at 9:17:28 AM

Latest Report: Oct 25, 2014 at 8:00 AM


Visibility: 4 mi

Pressure: 29.92 "Hg

Humidity: 84%

Dew point: 75 °F

Location of YangonLocation

Historic Weather in Yangon — Graph

°F

Yangon temperature yesterday

Maximum temperature yesterday: 91 °F (at 4:00 PM)
Minimum temperature yesterday: 75 °F (at 5:30 AM)
Average temperature yesterday: 84 °F

Past Weeks' High & Low Weather Summary

 TemperatureHumidityPressure
High102 °F (Oct 14, 7:30 PM)100% (Oct 10, 8:00 AM)30.01 "Hg (Oct 10, 8:00 AM)
Low73 °F (Oct 23, 5:30 AM)42% (Oct 14, 7:30 PM)29.74 "Hg (Oct 11, 4:00 PM)
Average82 °F83%29.88 "Hg
* Reported Oct 10 7:30 AM — Oct 25 8:00 AM, Yangon, Weather by CustomWeather, © 2014

Note: Actual official high and low records may vary slightly from our data, if they occured in-between our weather recording intervals... More about our weather records

Advertising

Yangon weather history for previous 24 hours

 ConditionsComfort  
Time TempWeatherWind HumidityBarometerVisibility
8:00 AM
Oct 25
81 °FScattered clouds.3 mph84%29.92 "Hg4 mi
7:30 AM81 °FScattered clouds.1 mph84%29.89 "Hg4 mi
7:00 AM81 °FScattered clouds.No wind84%29.89 "Hg4 mi
6:30 AM79 °FFog.5 mph94%29.86 "Hg3 mi
6:00 AM79 °FFog.2 mph94%29.86 "Hg3 mi
5:30 AM79 °FFog.3 mph94%29.83 "Hg3 mi
5:00 AM79 °FPassing clouds.3 mph94%29.83 "Hg4 mi
4:30 AM79 °FClear.2 mph94%29.80 "Hg4 mi
4:00 AM79 °FClear.1 mph94%29.80 "Hg4 mi
1:00 AM81 °FPassing clouds.2 mph84%29.83 "Hg4 mi
12:00 AM81 °FClear.2 mph84%29.86 "Hg4 mi
11:00 PM
Oct 24
81 °FClear.5 mph84%29.86 "Hg4 mi
10:00 PM81 °FClear.2 mph84%29.86 "Hg4 mi
9:00 PM82 °FPassing clouds.5 mph84%29.86 "Hg4 mi
8:30 PM82 °FPassing clouds.2 mph84%29.83 "Hg4 mi
8:00 PM82 °FPassing clouds.5 mph84%29.83 "Hg4 mi
6:30 PM86 °FPassing clouds.5 mph75%29.80 "Hg4 mi
6:00 PM86 °FPassing clouds.3 mph75%29.80 "Hg4 mi
5:30 PM86 °FPassing clouds.5 mph75%29.77 "Hg5 mi
5:00 PM88 °FPassing clouds.6 mph70%29.77 "Hg6 mi
4:30 PM90 °FPassing clouds.5 mph67%29.77 "Hg6 mi
4:00 PM91 °FScattered clouds.3 mph71%29.77 "Hg6 mi
3:30 PM90 °FPassing clouds.5 mph67%29.77 "Hg6 mi
3:00 PM90 °FScattered clouds.5 mph67%29.77 "Hg6 mi
2:30 PM90 °FScattered clouds.2 mph67%29.77 "Hg6 mi
2:00 PM90 °FScattered clouds.6 mph67%29.80 "Hg6 mi
1:30 PM90 °FScattered clouds.5 mph67%29.80 "Hg6 mi
1:00 PM90 °FScattered clouds.7 mph67%29.83 "Hg6 mi
12:30 PM88 °FScattered clouds.3 mph70%29.83 "Hg6 mi
12:00 PM88 °FScattered clouds.2 mph70%29.86 "Hg6 mi
11:30 AM86 °FScattered clouds.3 mph75%29.89 "Hg6 mi
11:00 AM86 °FScattered clouds.2 mph75%29.89 "Hg6 mi
10:30 AM86 °FPassing clouds.3 mph75%29.92 "Hg4 mi
10:00 AM86 °FPassing clouds.3 mph75%29.92 "Hg4 mi
9:00 AM82 °FSnow. Cloudy.3 mph84%29.92 "Hg4 mi
Weather by CustomWeather, © 2014

See weather overviewHow to use our weather pages